Погода в Саме

Погода в Саме : погода сейчас, прогноз погоды и архив. Всё, что Вы хотите узнать о погоде в Саме!

Поиск расширенной информации на нашем сайте:

Полезная информация:

Другие новости

Новости СМИ2

Главная страница сайта

Новости сайта

03.07.2017

Напоминаем, что на нашем специализированном сайте Метеоцентр.Азия вы можете получить высокодетализированные автоматические прогнозы погоды по пунктам России, СНГ и мира в авиационном формате (включающие направление и скорость ветра, видимость, явления погоды, количество и форму облачности, нижнюю и верхнюю границу облачности).

Рекомендуем:

Погода в Саме - сегодня

Время (UTC), дата Ветер
(°,м/с) 
Видим.   Явления Облачность Т
(°С)
Тd
(°С)
f(%) Тe
(°С)
Pmin
(гПа)
dP
(гПа)
Po
(мм)
O2
(г/м3)
Тmin Tmax R s Состояние
почвы
18 17.03.19 090 (В) н/о    3/0 верхняя 
[Ci fib]
+3.4 +2.4 93 +3  1010.4  -0.1  750  298    +7.4       
21 17.03.19 070 (В) н/о    ясно 
+1.6 +0.8 94 +1  1010.7  0.2  750  300           
00 18.03.19 070 (В) н/о  дымка  10/10 600 м 
[St]
+1.1 +0.6 96 1011.3  0.6  750  301           
03 18.03.19 020 (С) 4000 м  дымка  4/0 верхняя 
[Ci sp]
+0.7 -0.4 92 +1  1012.5  1.1  751  302           
06 18.03.19 050 (СВ) 20000 м    8/8 1000 м 
[Cu hum]
+3.5 +1.4 86 +2  1013.5  1.2  752  299  +0.2         
09 18.03.19 020 (С) 20000 м    10/10 1000 м 
[Sc]
+5.6 +3.2 85 +4  1013.7  0.2  752  296           
12 18.03.19 020 (С) 20000 м    10/10 600 м 
[Ns]
+7 +4.3 83 +5  1014.1  0.5  752  295           
15 18.03.19 360 (С) н/о    10/0 средняя 
[Ac und]
+6.7 +4.6 86 +5  1015  0.8  753  295    +7.2       
18 18.03.19 360 (С) н/о    9/0 средняя 
[As trans]
+6 +4.6 91 +4  1015.8  0.8  754  296    +7.2       
21 18.03.19 360 (С) н/о    9/0 средняя 
[As trans]
+5.2 +4 92 +6  1016.3  0.5  754  298           
00 19.03.19 360 (С) н/о  дымка  10/10 600 м 
[St]
+3.7 +3 95 +2  1016.8  0.4  754  299           
03 19.03.19 360 (С) 4000 м  дымка  10/0 средняя 
[Ac und]
+2.4 +1.1 91 1018.6  1.7  756  302           
06 19.03.19 360 (С) 20000 м    3/0 верхняя 
[Ci sp]
+5.8 +1.8 75 +4  1019.4  0.9  756  298  +2.3         
09 19.03.19 360 (С) 20000 м    3/0 средняя 
[Ac trans]
+11 +3 58 +11  1018.6  -0.6  756  292           
12 19.03.19 050 (СВ) 20000 м    4/0 средняя 
[Ac trans]
+14.4 +5.3 54 +15  1018  -0.5  755  288           
15 19.03.19 360 (С) н/о    4/0 средняя 
[Ac trans]
+12.1 +5.3 63 +12  1018.6  0.5  756  291    +14.7       
18 19.03.19 360 (С) н/о    3/0 верхняя 
[Ci sp]
+8.5 +5.1 79 +9  1019.9  1.2  757  295    +14.7       
21 19.03.19 360 (С) н/о    3/0 верхняя 
[Ci sp]
+5.2 +2.5 83 +5  1020.8  0.8  757  299           
00 20.03.19 050 (СВ) н/о    1/0 средняя 
[Ac lent]
+2.4 +0.8 89 +2  1019.7  -1.2  756  302           
03 20.03.19 050 (СВ) 20000 м    4/0 средняя 
[Ac lent]
+1.1 -0.6 88 1020.4  0.7  757  304           
06 20.03.19 050 (СВ) 20000 м    ясно 
+6.8 +3 77 +7  1020.5  0.2  757  297  +0.5         
09 20.03.19 050 (СВ) 20000 м    ясно 
+11.4 +4.3 62 +12  1019.5  -0.8  757  292           
12 20.03.19 020 (С) 20000 м    ясно 
+14.7 +5.5 54 +15  1018.5  -0.9  756  288           
15 20.03.19 070 (В) н/о    3/0 верхняя 
[Ci fib]
+12.9 +4.3 56 +13  1018.7  0.1  756  290    +15.4       
18 20.03.19 050 (СВ) н/о    3/0 верхняя 
[Ci fib]
+7 -0 61 +7  1019.7  0.9  757  297    +15.4       
Время (UTC), дата Ветер
(°,м/с) 
Видим.   Явления Облачность Т
(°С)
Тd
(°С)
f(%) Тe
(°С)
Pmin
(гПа)
dP
(гПа)
Po
(мм)
O2
(г/м3)
Тmin Tmax R s Состояние
почвы

Для получения пояснительной информации подведите курсор к названию столбца.

ПОГОДА в Саме - архив

Всё, что Вы хотите узнать о погоде в Саме - удобно и подробно!

Выберите нужную дату (начиная с 1 января 2018* года) и нажмите кнопку "Найти".
Будут отображены архивные сводки погоды по пункту Сам, начиная с указанной даты.


Отображать данные в формате CSV (для использования в таблицах Excel)


Внимание! Наш архив погоды предназначен исключительно для личного некоммерческого использования в познавательных целях. Если Вам необходимы официальные справки о состоянии погоды (для производственных, юридических, коммерческих и т.п. целей), обращайтесь в органы Росгидромета.

*Примечание: данная дата относится к архиву по метеостанциям СССР (Россия, СНГ, Балтия).
Архив по метеостанциям Зарубежной Европы и Азии (кроме Китая) хранится 10 дней, по другим регионам земного шара (Китай, Африка, Америка, Австралия, Океания) - 1 день.

Сам - район местоположения метеостанции


Название, широта, долгота, высота метеостанции:
Сам 45.4°ш. 56.1°д. 82 м над ур. моря [Казахстан]

Дополнительная информация

В oтличие oт бoльшинства пoгoдных сайтoв мы публикуем пoдрoбную метеoинфoрмацию в детальнoм прoфессиoнальнoм фoрмате.

Характеристики температуры и влажнoсти вoздуха измеряются на высoте 2 м в тени вдали oт зданий и деревьев.
Скoрoсть ветра измеряется на высoте 10 м (на урoвне рoста челoвека скoрoсть ветра ниже в 1.5-2 раза). Если метеoстанция нахoдится в гoрoде или в лесу, тo скoрoсть ветра занижена на 2-4 м/с пo сравнению с oткрытым местoм. Скoрoсть ветра над акватoриями крупных рек и oзёр, а также на вершинах хoлмoв на 2-5 м/с выше, чем в oбычных услoвиях.
Атмoсфернoе давление в разных тoчках местнoсти мoжет значительнo oтличаться oт давления на метеoстанции, в зависимoсти oт услoвий рельефа (при пoдъёме на 10 м давление пoнижается примернo на 1 мм рт.ст.).